TimeEDT,TemperatureF,Dew PointF,Humidity,Sea Level PressureIn,VisibilityMPH,Wind Direction,Wind SpeedMPH,Gust SpeedMPH,PrecipitationIn,Events,Conditions,WindDirDegrees,DateUTC
1:15 AM,59.2,57.2,93,29.99,10.0,Calm,Calm,-,N/A,,Scattered Clouds,0,2013-05-09 05:15:00
2:15 AM,57.9,56.3,94,29.98,10.0,Calm,Calm,-,N/A,,Scattered Clouds,0,2013-05-09 06:15:00
3:15 AM,54.0,52.5,95,29.98,0.2,Calm,Calm,-,N/A,Fog,Fog,0,2013-05-09 07:15:00
5:15 AM,52.3,51.1,95,29.99,0.2,Calm,Calm,-,N/A,Fog,Fog,0,2013-05-09 09:15:00
5:35 AM,53.1,51.8,95,29.99,0.2,Calm,Calm,-,0.01,Fog,Fog,0,2013-05-09 09:35:00
5:55 AM,54.1,52.9,95,30.00,0.2,Calm,Calm,-,0.01,Fog,Fog,0,2013-05-09 09:55:00
6:15 AM,54.7,53.4,96,30.00,0.2,Calm,Calm,-,N/A,Fog,Fog,0,2013-05-09 10:15:00
7:55 AM,57.2,55.9,96,30.02,1.0,Calm,Calm,-,N/A,,Overcast,0,2013-05-09 11:55:00
8:35 AM,59.5,58.3,96,30.04,10.0,West,5.8,-,N/A,,Clear,270,2013-05-09 12:35:00
10:55 AM,70.7,58.3,65,30.05,10.0,WSW,6.9,-,N/A,,Clear,240,2013-05-09 14:55:00
11:15 AM,72.1,57.7,60,30.05,10.0,West,5.8,-,N/A,,Clear,260,2013-05-09 15:15:00
11:35 AM,73.0,57.0,57,30.05,10.0,WSW,8.1,-,N/A,,Clear,250,2013-05-09 15:35:00
11:55 AM,73.9,57.0,55,30.05,10.0,WSW,6.9,-,N/A,,Clear,250,2013-05-09 15:55:00
12:15 PM,74.7,56.1,52,30.04,10.0,WNW,4.6,-,N/A,,Clear,290,2013-05-09 16:15:00
12:35 PM,75.4,55.6,50,30.04,10.0,SW,9.2,-,N/A,,Clear,230,2013-05-09 16:35:00
12:55 PM,76.1,55.0,48,30.03,10.0,WSW,8.1,-,N/A,,Clear,240,2013-05-09 16:55:00
1:15 PM,76.8,54.7,46,30.03,10.0,West,8.1,-,N/A,,Clear,260,2013-05-09 17:15:00
1:35 PM,77.4,54.3,45,30.02,10.0,SW,3.5,-,N/A,,Clear,230,2013-05-09 17:35:00
1:55 PM,77.9,55.0,45,30.03,10.0,West,11.5,-,N/A,,Clear,260,2013-05-09 17:55:00
2:15 PM,78.8,53.4,41,30.02,10.0,SW,9.2,-,N/A,,Clear,230,2013-05-09 18:15:00
2:35 PM,79.2,53.2,41,30.02,10.0,WSW,11.5,-,N/A,,Scattered Clouds,240,2013-05-09 18:35:00
2:55 PM,79.9,53.2,40,30.01,10.0,WNW,9.2,-,N/A,,Clear,300,2013-05-09 18:55:00
3:15 PM,79.0,52.9,40,30.01,10.0,NW,4.6,-,N/A,,Clear,320,2013-05-09 19:15:00
3:35 PM,79.9,53.2,40,30.01,10.0,West,11.5,-,N/A,,Scattered Clouds,260,2013-05-09 19:35:00
4:15 PM,80.2,52.9,39,30.00,10.0,West,6.9,-,N/A,,Scattered Clouds,260,2013-05-09 20:15:00
4:35 PM,80.6,53.1,38,30.00,10.0,West,4.6,-,N/A,,Scattered Clouds,270,2013-05-09 20:35:00
4:55 PM,80.4,53.2,39,30.00,10.0,WSW,4.6,-,N/A,,Scattered Clouds,250,2013-05-09 20:55:00
5:15 PM,80.4,53.6,39,30.01,10.0,WSW,6.9,-,N/A,,Clear,240,2013-05-09 21:15:00
5:35 PM,79.7,53.1,40,30.01,10.0,West,3.5,-,N/A,,Clear,280,2013-05-09 21:35:00
5:55 PM,79.9,53.6,40,30.00,10.0,WSW,3.5,-,N/A,,Clear,250,2013-05-09 21:55:00
6:15 PM,79.5,54.0,41,30.00,10.0,West,9.2,-,N/A,,Scattered Clouds,260,2013-05-09 22:15:00
6:35 PM,78.6,54.3,43,30.00,10.0,WSW,5.8,-,N/A,,Clear,250,2013-05-09 22:35:00
6:55 PM,77.4,55.0,46,30.00,10.0,WSW,3.5,-,N/A,,Clear,240,2013-05-09 22:55:00
7:15 PM,76.6,56.5,50,30.00,10.0,Calm,Calm,-,N/A,,Clear,0,2013-05-09 23:15:00
7:35 PM,73.9,58.8,59,30.01,10.0,Calm,Calm,-,N/A,,Clear,0,2013-05-09 23:35:00
7:55 PM,70.3,61.2,73,30.02,10.0,Calm,Calm,-,N/A,,Clear,0,2013-05-09 23:55:00
8:35 PM,66.0,61.7,86,30.03,10.0,Calm,Calm,-,N/A,,Clear,0,2013-05-10 00:35:00
8:55 PM,64.2,61.5,91,30.04,10.0,Calm,Calm,-,N/A,,Clear,0,2013-05-10 00:55:00
9:15 PM,62.8,60.6,93,30.05,10.0,Calm,Calm,-,N/A,,Clear,0,2013-05-10 01:15:00
9:35 PM,62.1,59.7,92,30.05,10.0,Calm,Calm,-,N/A,,Clear,0,2013-05-10 01:35:00
9:55 PM,61.7,59.5,93,30.06,10.0,Calm,Calm,-,N/A,,Clear,0,2013-05-10 01:55:00
10:15 PM,60.3,58.3,93,30.06,10.0,Calm,Calm,-,N/A,,Clear,0,2013-05-10 02:15:00
10:35 PM,60.3,58.5,94,30.06,10.0,Calm,Calm,-,N/A,,Clear,0,2013-05-10 02:35:00
10:55 PM,59.9,58.1,94,30.06,10.0,Calm,Calm,-,N/A,,Clear,0,2013-05-10 02:55:00
11:15 PM,59.2,57.2,93,30.06,7.0,Calm,Calm,-,N/A,,Clear,0,2013-05-10 03:15:00
11:35 PM,58.8,57.0,94,30.06,7.0,Calm,Calm,-,N/A,,Clear,0,2013-05-10 03:35:00
11:55 PM,58.5,56.8,94,30.05,7.0,Calm,Calm,-,N/A,,Clear,0,2013-05-10 03:55:00